Flag Weather past 2 weeks in Lugano, Switzerland

Now
55 °F

Sunny.


Feels Like: 55 °F
Forecast: 34 / 60 °F
Wind: 2 mph from North

Location: Lugano Airport

Current Time: Nov 22, 2014 at 3:23:22 PM

Latest Report: Nov 22, 2014 at 2:50 PM


Visibility: 10 mi

Pressure: 30.24 "Hg

Humidity: 55%

Dew point: 39 °F

Location of LuganoLocation

Historic Weather in Lugano — Graph

°F

Lugano temperature yesterday

Maximum temperature yesterday: 54 °F (at 12:50 PM)
Minimum temperature yesterday: 32 °F (at 6:20 AM)
Average temperature yesterday: 41 °F

Past Weeks' High & Low Weather Summary

 TemperatureHumidityPressure
High64 °F (Nov 8, 2:20 PM)100% (Nov 7, 6:50 PM)30.30 "Hg (Nov 7, 6:50 PM)
Low32 °F (Nov 19, 8:20 AM)48% (Nov 19, 2:20 PM)29.53 "Hg (Nov 15, 7:20 PM)
Average48 °F92%29.90 "Hg
* Reported Nov 7 2:20 PM — Nov 22 2:20 PM, Lugano, Weather by CustomWeather, © 2014

Note: Actual official high and low records may vary slightly from our data, if they occured in-between our weather recording intervals... More about our weather records

Advertising

Lugano weather history for previous 24 hours

 ConditionsComfort  
Time TempWeatherWind HumidityBarometerVisibility
2:20 PM
Nov 22
55 °FSunny.2 mph55%30.24 "Hg10 mi
1:50 PM57 °FRefreshingly cool.1 mph48%30.24 "HgN/A
1:20 PM52 °FPassing clouds.3 mph58%30.24 "HgN/A
12:50 PM52 °FPassing clouds.3 mph58%30.24 "HgN/A
12:20 PM50 °FSunny.3 mph67%30.24 "Hg10 mi
11:50 AM52 °FSunny.2 mph67%30.27 "Hg10 mi
11:20 AM50 °FSunny.1 mph67%30.27 "Hg10 mi
10:50 AM46 °FSunny.1 mph76%30.27 "Hg10 mi
10:20 AM46 °FSunny.1 mph76%30.27 "Hg10 mi
9:50 AM41 °FSunny.1 mph87%30.27 "Hg10 mi
9:20 AM36 °FSunny.1 mph100%30.27 "Hg10 mi
8:50 AM32 °FSunny.3 mph100%30.24 "Hg10 mi
8:20 AM34 °FPassing clouds.5 mph100%30.24 "HgN/A
7:50 AM34 °FSunny.1 mph93%30.24 "Hg10 mi
7:20 AM34 °FClear.1 mph93%30.24 "Hg10 mi
6:50 AM34 °FPassing clouds.3 mph93%30.24 "HgN/A
6:20 AM36 °FClear.1 mph100%30.24 "Hg10 mi
5:50 AM34 °FClear.1 mph100%30.24 "Hg10 mi
5:20 AM34 °FClear.3 mph100%30.24 "Hg10 mi
4:50 AM32 °FClear.1 mph100%30.24 "Hg10 mi
4:20 AM34 °FChilly.1 mph100%30.24 "Hg5 mi
3:50 AM36 °FClear.2 mph93%30.24 "Hg10 mi
3:20 AM34 °FChilly.3 mph93%30.24 "Hg5 mi
2:50 AM36 °FClear.3 mph93%30.24 "Hg10 mi
2:20 AM36 °FClear.2 mph93%30.24 "Hg10 mi
1:50 AM34 °FClear.5 mph93%30.24 "Hg10 mi
1:20 AM36 °FClear.1 mph93%30.24 "Hg10 mi
12:50 AM37 °FChilly.1 mph100%30.24 "Hg6 mi
12:20 AM36 °FClear.5 mph100%30.24 "Hg10 mi
11:50 PM
Nov 21
34 °FChilly.2 mph100%30.24 "Hg5 mi
11:20 PM37 °FClear.1 mph100%30.27 "Hg10 mi
10:20 PM37 °FClear.3 mph100%30.24 "Hg10 mi
9:50 PM39 °FClear.1 mph93%30.24 "Hg10 mi
9:20 PM39 °FClear.1 mph93%30.24 "Hg10 mi
8:50 PM39 °FClear.5 mph93%30.24 "Hg10 mi
8:20 PM39 °FClear.2 mph100%30.24 "Hg10 mi
7:50 PM39 °FClear.3 mph93%30.24 "Hg10 mi
7:20 PM43 °FClear.2 mph87%30.24 "Hg10 mi
6:50 PM41 °FClear.3 mph87%30.21 "Hg10 mi
6:20 PM43 °FClear.1 mph93%30.21 "Hg10 mi
5:50 PM45 °FClear.1 mph87%30.18 "Hg10 mi
5:20 PM46 °FClear.1 mph82%30.18 "Hg10 mi
4:20 PM52 °FSunny.1 mph67%30.18 "Hg10 mi
3:50 PM54 °FSunny.1 mph58%30.18 "Hg10 mi
3:20 PM54 °FSunny.1 mph58%30.18 "Hg10 mi
Weather by CustomWeather, © 2014

See weather overviewHow to use our weather pages